Regional Weather Roundup
Issued by NWS

Home | Current Version | Previous Version | Graphics & Text | Print | Product List | Glossary Off
Versions: 1 2 3 4 5 6 7 8 9 10 11 12 13 14 15 16 17 18 19 20 21 22 23 24 25 26 27 28 29 30 31 32 33 34 35 36 37 38 39 40 41 42 43 44 45 46 47 48 49 50

000
ASUS43 KMKX 302321
RWRWI

WISCONSIN REGIONAL WEATHER ROUNDUP
NATIONAL WEATHER SERVICE MILWAUKEE/SULLIVAN WI
600 PM CDT SAT JUL 30 2016

NOTE: "FAIR" INDICATES FEW OR NO CLOUDS BELOW 12,000 FEET WITH NO
SIGNIFICANT WEATHER AND/OR OBSTRUCTIONS TO VISIBILITY.

WIZ001-002-006>008-014>016-023>028-310000-
NORTHWEST WISCONSIN

CITY           SKY/WX    TMP DP  RH WIND       PRES   REMARKS
SUPERIOR ARPT  SUNNY     69  63  82 E8        30.01F
ASHLAND        SUNNY     75  60  59 NE10      30.02F
HAYWARD        MOSUNNY   77  57  50 S5        30.02F
SIREN          PTSUNNY   75  57  53 S3        30.01
CUMBERLAND     SUNNY     75  57  53 SE5       30.02S
RICE LAKE      SUNNY     77  57  50 SE5       30.03S
CHETEK         SUNNY     78  60  53 S6        30.01F HX  80
LADYSMITH      SUNNY     80  54  40 SE6       30.04S HX  80
EAU CLAIRE     MOSUNNY   79  62  56 E6        29.99F HX  80
MENOMONIE      PTSUNNY   80  62  54 E7        30.00S HX  81
NEW RICHMOND   SUNNY     79  58  48 S5        30.00S HX  80
OSCEOLA        SUNNY     80  60  50 E8        30.02S HX  81
$$

WIZ003>005-009-010-017-018-310000-
NORTH CENTRAL WISCONSIN

CITY           SKY/WX    TMP DP  RH WIND       PRES   REMARKS
MANITOWISH WTR SUNNY     75  55  49 SE3       30.05S
ARBOR VITAE    MOSUNNY   77  54  44 S6        30.05F
WOODRUFF       MOSUNNY   77  54  44 S6        30.05F
RHINELANDER    MOSUNNY   76  53  44 SE7       30.07F
EAGLE RIVER    SUNNY     75  49  39 SE7       30.06S
LAND O LAKES   MOSUNNY   77  47  34 CALM      30.07F
PHILLIPS       CLOUDY    77  57  51 SE5       30.03F
TOMAHAWK       SUNNY     75  55  50 E3        30.05F
MEDFORD        MOSUNNY   75  61  61 S5        30.03F
MERRILL        PTSUNNY   75  57  53 SE6       30.05F
$$

WIZ029-030-035-036-043>047-310000-
CENTRAL WISCONSIN

CITY           SKY/WX    TMP DP  RH WIND       PRES   REMARKS
WAUSAU         MOSUNNY   74  56  53 E8        30.03S
MOSINEE        MOSUNNY   75  55  50 E7        30.05S
MARSHFIELD     MOSUNNY   77  58  51 E8        30.03S
STEVENS POINT  SUNNY     74  56  52 E8        30.04S
WAUPACA        MOSUNNY   79  52  39 E7        30.04S
WAUTOMA        MOSUNNY   76  60  57 E6        30.03S
WISC RAPIDS    MOSUNNY   79  57  46 E13       30.04S HX  80
CAMP DOUGLAS   SUNNY     78  63  61 E9        30.01S
$$

WIZ011>013-019>022-031-037>040-048>050-310000-
NORTHEAST WISCONSIN

CITY           SKY/WX    TMP DP  RH WIND       PRES   REMARKS
ANTIGO         SUNNY     72  57  58 CALM      30.07S
SHAWANO        SUNNY     77  52  41 E7        30.04F
OCONTO         SUNNY     75  54  48 NE5       30.04S
STURGEON BAY   SUNNY     74  54  49 E6        30.05S
GREEN BAY      SUNNY     74  55  51 N13       30.04S
MANITOWOC      SUNNY     73  56  54 NE8       30.04S
APPLETON       MOSUNNY   75  50  41 NE9       30.03S
CLINTONVILLE   SUNNY     75  48  38 E8        30.04S
OSHKOSH        MOSUNNY   76  53  44 NE9       30.02F
$$

WIZ032>034-041-042-053>061-310000-
SOUTHWEST WISCONSIN

CITY           SKY/WX    TMP DP  RH WIND       PRES   REMARKS
LA CROSSE      SUNNY     79  62  56 SE5       29.98S HX  80
SPARTA         PTSUNNY   76  63  63 SE6       30.01S
VIROQUA        SUNNY     77  62  59 S5        30.02S
BOSCOBEL       MOSUNNY   81  62  52 E5        29.99F HX  82
PRAIRIE DU CHI MOSUNNY   77  63  61 NE6       29.98F
PLATTEVILLE    SUNNY     78  64  60 E8        30.00S HX  80
$$

WIZ056-057-062-063-064-067-068-310000-
SOUTH CENTRAL WISCONSIN

CITY           SKY/WX    TMP DP  RH WIND       PRES   REMARKS
REEDSBURG      MOSUNNY   77  62  60 E5        30.00F
BARABOO/DELLS  PTSUNNY   75  60  60 E3        30.02S
LONE ROCK      SUNNY     78  64  61 E8        30.00F HX  80
MINERAL POINT  SUNNY     79  63  57 NE6       30.01F HX  80
MADISON        MOSUNNY   78  59  51 NE12      30.01R
MIDDLETON      MOSUNNY   78  61  54 NE8       30.02S HX  80
WATERTOWN      SUNNY     76  58  52 N8        30.01S
MONROE         SUNNY     77  59  53 NE7       30.00S
JANESVILLE     MOSUNNY   81  57  44 NE9       29.99S HX  81
$$

WIZ051-052-058>065-066-070>072-310000-
SOUTHEAST WISCONSIN

CITY           SKY/WX    TMP DP  RH WIND       PRES   REMARKS
MILWAUKEE      PTSUNNY   74  61  63 NE12      30.02S
WAUKESHA       MOSUNNY   73  55  53 E10       30.03S
MILWAUKEE/TIMM SUNNY     73  52  46 NE9       30.03S
RACINE         CLOUDY    72  62  71 N14       30.03S
BURLINGTON     MOSUNNY   75  58  55 E12       30.01S
KENOSHA        CLOUDY    73  62  68 NE8       30.01S
FOND DU LAC    SUNNY     77  54  44 NE9       30.03S
SHEBOYGAN      SUNNY     72  57  59 NE14      30.03S
WEST BEND      SUNNY     73  54  49 NE7       30.03S
JUNEAU         SUNNY     75  55  50 N9        30.04R
$$

LSZ147-162-310000-
LAKE SUPERIOR

STATION/POSITION TIME  TEMP    WIND        PRES    WAVE
                       AIR SEA DIR/SP/G            HT/PER
                 (UTC) (F)     (DEG/KT/KT) (MB)    (FT/S)
W MID LAKE BUOY  2250   65 64   80/  8/ 10 1016.8F   0
DEVILS ISLAND    2300   67      70/  8/  9 1016.7F
PORT WING        2240   64      20/ 12/ 13 1016.6F
SAXON HARBOR     2240   73      50/  9/ 11 1016.3F
$$

LMZ867-665-643>646-310000-
LAKE MICHIGAN

STATION/POSITION TIME  TEMP    WIND        PRES    WAVE
                       AIR SEA DIR/SP/G            HT/PER
                 (UTC) (F)     (DEG/KT/KT) (MB)    (FT/S)
CHAMBERS ISLAND  2200   73      10/  9/ 10 1017.6F
S GREEN BAY BUOY 2300   72 71   40/ 12/ 14 1016.7
N MID LAKE BUOY  2250   71 70   20/ 10/ 12 1016.6F   1/ 3
NORTHPORT PIER   2200   79      60/  9/ 11 1017.3F
SISTER BAY       2221   78      40/  7/ 10   N/A
ALGOMA LAKESHORE 2213           70/ 14/ 17   N/A
KEWAUNEE LAKESHO 2200   72                   N/A
SHEBOYGAN LAKESH 2300   67      10/ 10/ 11 1017.0F
PORT WASHINGTON  2240   72      40/ 11/ 14 1017.3S
ATWATER BUOY     2300   68 66   30/ 10/ 14 1018.1S
MILWAUKEE LAKESH 2210   68      20/ 10/ 12   N/A
S MID LAKE BUOY  2250   72 74   30/ 12/ 14 1015.0F   1/ 4
KENOSHA   LAKESH 2300   70      10/ 13/ 14 1015.6S
$$

TC  - TEMPERATURE IN CELSIUS
VSB - VISIBILITY IN STATUTE MILES
WCI - WIND CHILL INDEX
HX  - HEAT INDEX





USA.gov is the U.S. government's official web portal to all federal, state and local government web resources and services.